• In Russia
  • List of Countries
  • For 7 days
  • Water Temperature
  • Satellite Maps
  • Weather Map
  • Weather Widgets
  • user-avatar
    Login

    Hourly Weather Newport

    Today, 21 September, Friday

    Time Temperature Precipitation Wind Pressure Humidity
    00:00 +10°C° 0.5 mm 12 mps 747 mmHg 89%
    01:00 +9°C° 0.2 mm 12 mps 748 mmHg 88%
    02:00 +8°C° 0.2 mm 11 mps 750 mmHg 86%
    03:00 +7°C° 0.2 mm 10 mps 751 mmHg 84%
    04:00 +7°C° 0.1 mm 10 mps 752 mmHg 83%
    05:00 +7°C° 0.1 mm 10 mps 753 mmHg 82%
    06:00 +7°C° 0.1 mm 9 mps 754 mmHg 81%
    07:00 +8°C° 0.2 mm 10 mps 754 mmHg 80%
    08:00 +9°C° 0.2 mm 11 mps 755 mmHg 78%
    09:00 +11°C° 0.2 mm 11 mps 755 mmHg 76%
    10:00 +10°C° 0.3 mm 12 mps 756 mmHg 75%
    11:00 +12°C° 0.3 mm 12 mps 756 mmHg 74%
    12:00 +12°C° 0.3 mm 13 mps 757 mmHg 73%
    13:00 +12°C° 0.2 mm 12 mps 757 mmHg 73%
    14:00 +13°C° 0.2 mm 12 mps 757 mmHg 73%
    15:00 +13°C° 0.2 mm 11 mps 758 mmHg 74%
    16:00 +12°C° 0.2 mm 10 mps 758 mmHg 75%
    17:00 +11°C° 0.2 mm 9 mps 759 mmHg 77%
    18:00 +11°C° 0.2 mm 8 mps 759 mmHg 79%
    19:00 +10°C° 0.1 mm 8 mps 760 mmHg 80%
    20:00 +10°C° 0.1 mm 7 mps 761 mmHg 81%
    21:00 +9°C° 0.1 mm 6 mps 761 mmHg 82%
    22:00 +9°C° 0 mm 6 mps 762 mmHg 83%
    23:00 +9°C° 0 mm 6 mps 762 mmHg 84%

    Tomorrow, 22 September, Saturday

    Time Temperature Precipitation Wind Pressure Humidity
    00:00 +9°C° 0 mm 5 mps 763 mmHg 85%
    01:00 +9°C° 0 mm 5 mps 763 mmHg 85%
    02:00 +10°C° 0 mm 4 mps 763 mmHg 84%
    03:00 +10°C° 0 mm 4 mps 763 mmHg 84%
    04:00 +10°C° 0 mm 4 mps 763 mmHg 84%
    05:00 +10°C° 0 mm 3 mps 763 mmHg 84%
    06:00 +10°C° 0 mm 3 mps 763 mmHg 84%
    07:00 +11°C° 0 mm 3 mps 763 mmHg 82%
    08:00 +12°C° 0 mm 2 mps 764 mmHg 80%
    09:00 +13°C° 0 mm 2 mps 764 mmHg 79%
    10:00 +14°C° 0.2 mm 2 mps 764 mmHg 79%
    11:00 +13°C° 0.2 mm 3 mps 764 mmHg 79%
    12:00 +13°C° 0.2 mm 3 mps 764 mmHg 80%
    13:00 +13°C° 0.4 mm 3 mps 763 mmHg 83%
    14:00 +12°C° 0.4 mm 3 mps 763 mmHg 87%
    15:00 +12°C° 0.4 mm 3 mps 762 mmHg 90%
    16:00 +11°C° 1.4 mm 4 mps 761 mmHg 91%
    17:00 +10°C° 1.4 mm 5 mps 761 mmHg 93%
    18:00 +9°C° 1.4 mm 7 mps 760 mmHg 95%
    19:00 +10°C° 0.9 mm 7 mps 760 mmHg 94%
    20:00 +10°C° 0.9 mm 7 mps 759 mmHg 94%
    21:00 +10°C° 0.9 mm 8 mps 759 mmHg 94%
    22:00 +10°C° 0.6 mm 7 mps 758 mmHg 95%
    23:00 +10°C° 0.6 mm 7 mps 757 mmHg 95%

    Day after tomorrow, 23 September, Sunday

    Time Temperature Precipitation Wind Pressure Humidity
    00:00 +11°C° 0.6 mm 7 mps 757 mmHg 96%
    01:00 +11°C° 1.9 mm 6 mps 756 mmHg 96%
    02:00 +13°C° 1.9 mm 6 mps 756 mmHg 96%
    03:00 +13°C° 1.9 mm 6 mps 755 mmHg 96%
    04:00 +14°C° 1 mm 6 mps 754 mmHg 97%
    05:00 +15°C° 1 mm 7 mps 754 mmHg 97%
    06:00 +16°C° 1 mm 8 mps 753 mmHg 97%
    07:00 +17°C° 0.4 mm 8 mps 753 mmHg 97%
    08:00 +17°C° 0.4 mm 9 mps 752 mmHg 96%
    09:00 +17°C° 0.4 mm 10 mps 752 mmHg 96%
    10:00 +17°C° 0.6 mm 10 mps 752 mmHg 95%
    11:00 +17°C° 0.6 mm 11 mps 751 mmHg 94%
    12:00 +17°C° 0.6 mm 12 mps 751 mmHg 93%
    13:00 +14°C° 0.7 mm 12 mps 752 mmHg 92%
    14:00 +13°C° 0.7 mm 12 mps 752 mmHg 90%
    15:00 +10°C° 0.7 mm 12 mps 753 mmHg 89%
    16:00 +9°C° 0 mm 12 mps 755 mmHg 86%
    17:00 +9°C° 0 mm 12 mps 757 mmHg 82%
    18:00 +8°C° 0 mm 12 mps 759 mmHg 79%
    19:00 +7°C° 0 mm 11 mps 762 mmHg 78%
    20:00 +7°C° 0 mm 9 mps 764 mmHg 78%
    21:00 +6°C° 0 mm 8 mps 766 mmHg 77%
    22:00 +6°C° 0 mm 7 mps 767 mmHg 77%
    23:00 +7°C° 0 mm 6 mps 768 mmHg 77%

    24 September, Monday

    Time Temperature Precipitation Wind Pressure Humidity
    00:00 +7°C° 0 mm 6 mps 770 mmHg 78%
    01:00 +7°C° 0 mm 5 mps 770 mmHg 78%
    02:00 +6°C° 0 mm 5 mps 771 mmHg 79%
    03:00 +6°C° 0 mm 4 mps 772 mmHg 80%
    04:00 +6°C° 0 mm 4 mps 773 mmHg 81%
    05:00 +6°C° 0 mm 4 mps 774 mmHg 82%
    06:00 +7°C° 0 mm 3 mps 774 mmHg 84%
    07:00 +8°C° 0 mm 3 mps 775 mmHg 80%
    08:00 +10°C° 0 mm 4 mps 776 mmHg 77%
    09:00 +11°C° 0 mm 4 mps 776 mmHg 73%
    10:00 +12°C° 0 mm 3 mps 777 mmHg 71%
    11:00 +13°C° 0 mm 3 mps 777 mmHg 68%
    12:00 +13°C° 0 mm 3 mps 778 mmHg 65%
    13:00 +13°C° 0 mm 3 mps 778 mmHg 65%
    14:00 +13°C° 0 mm 3 mps 778 mmHg 66%
    15:00 +13°C° 0 mm 3 mps 778 mmHg 67%
    16:00 +12°C° 0 mm 3 mps 778 mmHg 72%
    17:00 +11°C° 0 mm 3 mps 778 mmHg 76%
    18:00 +10°C° 0 mm 3 mps 778 mmHg 81%
    19:00 +9°C° 0 mm 3 mps 778 mmHg 82%
    20:00 +9°C° 0 mm 3 mps 778 mmHg 84%
    21:00 +8°C° 0 mm 3 mps 779 mmHg 85%
    22:00 +8°C° 0 mm 3 mps 779 mmHg 86%
    23:00 +7°C° 0 mm 3 mps 779 mmHg 87%

    25 September, Tuesday

    Time Temperature Precipitation Wind Pressure Humidity
    00:00 +7°C° 0 mm 3 mps 779 mmHg 87%
    01:00 +7°C° 0 mm 3 mps 779 mmHg 87%
    02:00 +5°C° 0 mm 3 mps 778 mmHg 87%
    03:00 +5°C° 0 mm 3 mps 778 mmHg 87%
    04:00 +5°C° 0 mm 3 mps 778 mmHg 87%
    05:00 +5°C° 0 mm 3 mps 778 mmHg 88%
    06:00 +4°C° 0 mm 3 mps 778 mmHg 88%
    07:00 +7°C° 0 mm 3 mps 778 mmHg 84%
    08:00 +8°C° 0 mm 4 mps 778 mmHg 80%
    09:00 +11°C° 0 mm 4 mps 778 mmHg 76%
    10:00 +12°C° 0 mm 4 mps 777 mmHg 72%
    11:00 +13°C° 0 mm 4 mps 777 mmHg 68%
    12:00 +14°C° 0 mm 4 mps 777 mmHg 65%
    13:00 +14°C° 0 mm 3 mps 776 mmHg 64%
    14:00 +14°C° 0 mm 3 mps 775 mmHg 64%
    15:00 +16°C° 0 mm 3 mps 775 mmHg 64%
    16:00 +14°C° 0 mm 2 mps 774 mmHg 68%
    17:00 +13°C° 0 mm 2 mps 774 mmHg 73%
    18:00 +10°C° 0 mm 2 mps 774 mmHg 78%
    19:00 +10°C° 0 mm 3 mps 774 mmHg 78%
    20:00 +9°C° 0 mm 3 mps 774 mmHg 79%
    21:00 +8°C° 0 mm 3 mps 774 mmHg 80%
    22:00 +8°C° 0 mm 3 mps 773 mmHg 82%
    23:00 +7°C° 0 mm 4 mps 773 mmHg 83%

    26 September, Wednesday

    Time Temperature Precipitation Wind Pressure Humidity
    00:00 +7°C° 0 mm 4 mps 773 mmHg 85%
    01:00 +7°C° 0 mm 4 mps 772 mmHg 87%
    02:00 +6°C° 0 mm 4 mps 772 mmHg 89%
    03:00 +6°C° 0 mm 4 mps 772 mmHg 91%
    04:00 +6°C° 0 mm 4 mps 771 mmHg 91%
    05:00 +6°C° 0 mm 4 mps 771 mmHg 92%
    06:00 +6°C° 0 mm 4 mps 771 mmHg 92%
    07:00 +8°C° 0 mm 4 mps 770 mmHg 89%
    08:00 +11°C° 0 mm 4 mps 770 mmHg 85%
    09:00 +12°C° 0 mm 4 mps 770 mmHg 82%
    10:00 +14°C° 0 mm 4 mps 770 mmHg 78%
    11:00 +15°C° 0 mm 4 mps 769 mmHg 75%
    12:00 +17°C° 0 mm 4 mps 769 mmHg 71%
    13:00 +18°C° 0 mm 4 mps 769 mmHg 71%
    14:00 +18°C° 0 mm 3 mps 768 mmHg 70%
    15:00 +18°C° 0 mm 3 mps 768 mmHg 70%
    16:00 +17°C° 0 mm 3 mps 768 mmHg 75%
    17:00 +15°C° 0 mm 2 mps 767 mmHg 81%
    18:00 +14°C° 0 mm 2 mps 767 mmHg 86%
    19:00 +13°C° 0 mm 1 mps 767 mmHg 87%
    20:00 +12°C° 0 mm 1 mps 767 mmHg 88%
    21:00 +11°C° 0 mm 1 mps 767 mmHg 89%
    22:00 +11°C° 0 mm 1 mps 767 mmHg 89%
    23:00 +11°C° 0 mm 1 mps 767 mmHg 90%
    Show more